EUTELSAT 80A

Last updated on Nov. 15, 2019, 4:20 a.m. UTC

1 26369U 00028A   19317.84744838  .00000136  00000-0  00000-0 0  9993
2 26369   2.9013  82.3891 0004798 162.5273 160.9755  1.00273583 71299
UTC
Height (km)
Latitude
Longitude
Inclination
Orbital Period
UTC large
Height (km)
Speed (km/s)
/
Latitude / Longitude
Inclination (degrees)
Orbital Period (minutes)
Azimuth
Elevation
Range (km)
Doppler Factor
iOS Compass Heading
iOS Angle

Next 30 passes for location: Hong Kong

Rise time Rise Azimuth (degrees) Set time Set Azimuth (degrees) Duration Max altitude (degrees)

No matching passes for this satellites